QPF
0.00 0.00 0.00 0.00 0.00 0.00 0.00 0.00 0.00 0.00 0.00 0.00 0.00 0.00 0.00 0.00 0.00 0.00 0.01 0.02 0.06 0.06 0.06 0.07 0.09 0.14 0.15 0.14 0.15 0.15 0.17 0.15 0.13 0.09 0.06 0.04 0.03 0.03 0.03 0.03 0.02 0.01 0.00 0.00
0.00 0.00 0.00 0.00 0.00 0.00 0.00 0.00 0.00 0.00 0.00 0.00 0.00 0.00 0.00 0.00 0.00 0.00 0.00 0.02 0.03 0.04 0.04 0.05 0.06 0.11 0.14 0.13 0.11 0.12 0.13 0.12 0.10 0.09 0.07 0.03 0.02 0.02 0.02 0.01 0.01 0.00 0.00 0.00
0.00 0.00 0.00 0.00 0.00 0.00 0.00 0.00 0.00 0.00 0.00 0.00 0.00 0.00 0.00 0.00 0.00 0.00 0.00 0.01 0.01 0.02 0.02 0.04 0.06 0.07 0.09 0.11 0.09 0.09 0.10 0.08 0.07 0.06 0.04 0.02 0.02 0.01 0.01 0.01 0.00 0.00 0.00 0.00
0.00 0.00 0.00 0.00 0.00 0.00 0.00 0.00 0.00 0.00 0.00 0.00 0.00 0.00 0.00 0.00 0.00 0.00 0.00 0.00 0.00 0.01 0.02 0.03 0.04 0.05 0.06 0.08 0.06 0.07 0.08 0.06 0.05 0.03 0.02 0.03 0.02 0.02 0.01 0.00 0.00 0.00 0.00 0.00
0.00 0.00 0.00 0.00 0.00 0.00 0.00 0.00 0.00 0.00 0.00 0.00 0.00 0.00 0.00 0.00 0.00 0.00 0.00 0.00 0.00 0.01 0.01 0.01 0.03 0.04 0.03 0.04 0.04 0.05 0.07 0.06 0.04 0.02 0.02 0.03 0.01 0.01 0.00 0.00 0.00 0.00 0.00 0.00
0.00 0.00 0.00 0.00 0.00 0.00 0.00 0.00 0.00 0.00 0.00 0.00 0.00 0.00 0.00 0.00 0.00 0.00 0.00 0.00 0.00 0.00 0.00 0.02 0.03 0.03 0.03 0.03 0.03 0.03 0.05 0.04 0.02 0.01 0.01 0.01 0.01 0.01 0.00 0.00 0.00 0.00 0.00 0.00
0.00 0.00 0.00 0.00 0.00 0.00 0.00 0.00 0.00 0.00 0.00 0.00 0.00 0.00 0.00 0.00 0.00 0.00 0.00 0.00 0.00 0.00 0.00 0.01 0.01 0.02 0.02 0.01 0.01 0.01 0.03 0.02 0.02 0.01 0.01 0.01 0.01 0.01 0.00 0.00 0.00 0.00 0.00 0.00
0.00 0.00 0.00 0.00 0.00 0.00 0.00 0.00 0.00 0.00 0.00 0.00 0.00 0.00 0.00 0.00 0.00 0.00 0.00 0.00 0.00 0.00 0.00 0.00 0.00 0.01 0.01 0.01 0.01 0.01 0.01 0.02 0.01 0.01 0.01 0.01 0.01 0.00 0.00 0.00 0.00 0.00 0.00 0.00
0.00 0.00 0.00 0.00 0.00 0.00 0.00 0.00 0.00 0.00 0.00 0.00 0.00 0.00 0.00 0.00 0.00 0.00 0.00 0.00 0.00 0.00 0.00 0.00 0.00 0.00 0.00 0.00 0.01 0.01 0.02 0.02 0.02 0.01 0.01 0.01 0.00 0.00 0.00 0.00 0.00 0.00 0.00 0.00
0.00 0.00 0.00 0.00 0.00 0.00 0.00 0.00 0.00 0.00 0.00 0.00 0.00 0.00 0.00 0.00 0.00 0.00 0.00 0.00 0.00 0.00 0.00 0.00 0.00 0.00 0.00 0.00 0.00 0.01 0.01 0.01 0.01 0.01 0.01 0.00 0.00 0.00 0.00 0.00 0.00 0.00 0.00 0.00
0.00 0.00 0.00 0.00 0.00 0.00 0.00 0.00 0.00 0.00 0.00 0.00 0.00 0.00 0.00 0.00 0.00 0.00 0.00 0.00 0.00 0.00 0.00 0.00 0.00 0.00 0.00 0.00 0.00 0.00 0.00 0.00 0.01 0.00 0.00 0.00 0.00 0.00 0.00 0.00 0.00 0.00 0.00 0.00
0.01 0.00 0.00 0.00 0.00 0.00 0.00 0.00 0.00 0.00 0.00 0.00 0.00 0.00 0.00 0.00 0.00 0.00 0.00 0.00 0.00 0.00 0.00 0.00 0.00 0.00 0.00 0.00 0.00 0.00 0.00 0.00 0.00 0.00 0.00 0.00 0.01 0.00 0.00 0.00 0.00 0.00 0.00 0.00
0.01 0.00 0.00 0.01 0.00 0.00 0.00 0.00 0.00 0.00 0.00 0.00 0.00 0.00 0.00 0.00 0.00 0.00 0.00 0.00 0.00 0.00 0.00 0.00 0.00 0.00 0.00 0.00 0.00 0.00 0.00 0.00 0.00 0.00 0.00 0.01 0.01 0.00 0.00 0.00 0.00 0.00 0.01 0.01
0.01 0.00 0.00 0.01 0.01 0.00 0.00 0.00 0.00 0.00 0.00 0.00 0.00 0.00 0.00 0.00 0.00 0.00 0.00 0.00 0.00 0.00 0.00 0.00 0.00 0.00 0.00 0.00 0.01 0.01 0.01 0.01 0.01 0.01 0.01 0.01 0.01 0.01 0.01 0.01 0.01 0.01 0.01 0.01
0.01 0.00 0.00 0.00 0.00 0.00 0.00 0.00 0.00 0.00 0.00 0.00 0.00 0.00 0.00 0.00 0.00 0.00 0.00 0.00 0.00 0.00 0.00 0.01 0.01 0.00 0.00 0.00 0.01 0.01 0.01 0.01 0.01 0.01 0.01 0.01 0.01 0.02 0.02 0.02 0.02 0.02 0.01 0.01
0.01 0.01 0.00 0.00 0.00 0.00 0.00 0.00 0.00 0.00 0.00 0.00 0.00 0.00 0.00 0.00 0.00 0.00 0.00 0.00 0.00 0.00 0.00 0.00 0.00 0.00 0.00 0.01 0.01 0.01 0.01 0.01 0.01 0.01 0.01 0.01 0.01 0.01 0.01 0.01 0.01 0.01 0.01 0.01
0.01 0.01 0.01 0.00 0.00 0.00 0.00 0.00 0.00 0.00 0.00 0.00 0.00 0.00 0.00 0.00 0.00 0.00 0.01 0.01 0.00 0.00 0.01 0.01 0.01 0.01 0.01 0.01 0.01 0.01 0.01 0.01 0.01 0.01 0.01 0.01 0.01 0.01 0.01 0.01 0.01 0.01 0.01 0.01
0.01 0.01 0.01 0.01 0.01 0.01 0.00 0.00 0.00 0.00 0.00 0.00 0.00 0.00 0.00 0.00 0.00 0.01 0.01 0.01 0.01 0.01 0.01 0.01 0.01 0.01 0.01 0.01 0.01 0.01 0.01 0.01 0.01 0.01 0.01 0.01 0.00 0.00 0.00 0.00 0.00 0.00 0.01 0.01
0.00 0.01 0.01 0.01 0.01 0.00 0.00 0.00 0.00 0.00 0.00 0.00 0.00 0.00 0.00 0.01 0.01 0.01 0.01 0.01 0.01 0.01 0.01 0.01 0.01 0.01 0.01 0.01 0.01 0.01 0.01 0.01 0.01 0.01 0.01 0.01 0.01 0.00 0.00 0.00 0.00 0.00 0.00 0.00
0.01 0.01 0.01 0.02 0.02 0.01 0.00 0.00 0.00 0.01 0.01 0.00 0.00 0.00 0.00 0.01 0.01 0.01 0.01 0.01 0.01 0.01 0.01 0.01 0.01 0.01 0.01 0.01 0.01 0.01 0.01 0.01 0.01 0.01 0.01 0.01 0.01 0.01 0.01 0.01 0.00 0.00 0.00 0.00
0.02 0.02 0.02 0.03 0.03 0.01 0.00 0.00 0.00 0.02 0.02 0.00 0.00 0.00 0.00 0.01 0.02 0.02 0.02 0.02 0.01 0.01 0.02 0.02 0.01 0.01 0.01 0.01 0.01 0.01 0.01 0.01 0.02 0.02 0.02 0.01 0.01 0.01 0.01 0.01 0.01 0.01 0.00 0.00
0.02 0.03 0.03 0.03 0.03 0.01 0.00 0.00 0.01 0.02 0.01 0.00 0.00 0.01 0.01 0.01 0.02 0.02 0.02 0.02 0.02 0.02 0.02 0.02 0.02 0.01 0.01 0.01 0.01 0.01 0.01 0.01 0.02 0.02 0.02 0.02 0.01 0.01 0.01 0.01 0.00 0.00 0.00 0.00
0.01 0.01 0.01 0.01 0.01 0.01 0.00 0.00 0.00 0.00 0.00 0.01 0.01 0.01 0.01 0.01 0.02 0.02 0.02 0.02 0.02 0.03 0.02 0.02 0.02 0.02 0.02 0.02 0.02 0.02 0.02 0.03 0.02 0.02 0.02 0.02 0.02 0.01 0.01 0.01 0.01 0.00 0.00 0.00
0.01 0.00 0.00 0.00 0.00 0.00 0.00 0.00 0.00 0.01 0.01 0.01 0.02 0.02 0.02 0.02 0.02 0.02 0.02 0.02 0.01 0.01 0.01 0.02 0.02 0.02 0.02 0.02 0.03 0.03 0.03 0.03 0.03 0.02 0.02 0.01 0.01 0.01 0.01 0.01 0.01 0.01 0.01 0.01
0.00 0.00 0.00 0.00 0.00 0.00 0.01 0.01 0.01 0.02 0.02 0.02 0.03 0.03 0.03 0.03 0.03 0.03 0.02 0.01 0.01 0.01 0.01 0.01 0.01 0.01 0.02 0.02 0.02 0.03 0.02 0.02 0.02 0.02 0.02 0.02 0.01 0.01 0.01 0.01 0.01 0.01 0.00 0.01
0.00 0.00 0.00 0.01 0.01 0.01 0.02 0.03 0.03 0.03 0.03 0.03 0.04 0.03 0.03 0.04 0.03 0.02 0.02 0.01 0.01 0.02 0.01 0.01 0.01 0.01 0.00 0.01 0.01 0.01 0.02 0.02 0.02 0.01 0.01 0.01 0.01 0.01 0.01 0.01 0.01 0.01 0.01 0.01
MSLP
1012.11 1012.27 1012.28 1012.17 1011.99 1011.79 1011.59 1011.43 1011.30 1011.20 1011.11 1011.03 1010.95 1010.89 1010.85 1010.88 1010.99 1011.19 1011.49 1011.87 1012.30 1012.74 1013.17 1013.57 1013.91 1014.22 1014.52 1014.81 1015.12 1015.46 1015.83 1016.21 1016.58 1016.93 1017.25 1017.55 1017.83 1018.11 1018.41 1018.73 1019.10 1019.48 1019.86 1020.20
1012.15 1012.24 1012.20 1012.07 1011.90 1011.72 1011.56 1011.45 1011.35 1011.28 1011.18 1011.06 1010.92 1010.78 1010.67 1010.63 1010.71 1010.91 1011.24 1011.68 1012.19 1012.72 1013.24 1013.70 1014.10 1014.44 1014.74 1015.03 1015.34 1015.67 1016.04 1016.43 1016.81 1017.17 1017.49 1017.77 1018.01 1018.23 1018.46 1018.72 1019.03 1019.37 1019.73 1020.09
1011.99 1012.03 1011.95 1011.81 1011.66 1011.53 1011.44 1011.40 1011.37 1011.32 1011.23 1011.08 1010.88 1010.66 1010.46 1010.35 1010.37 1010.55 1010.90 1011.38 1011.96 1012.57 1013.16 1013.69 1014.14 1014.52 1014.84 1015.15 1015.46 1015.80 1016.19 1016.59 1017.00 1017.38 1017.70 1017.97 1018.18 1018.35 1018.52 1018.71 1018.94 1019.23 1019.57 1019.92
1011.64 1011.62 1011.52 1011.39 1011.29 1011.24 1011.25 1011.31 1011.36 1011.37 1011.29 1011.12 1010.86 1010.56 1010.27 1010.07 1010.02 1010.16 1010.49 1010.98 1011.59 1012.25 1012.91 1013.49 1013.99 1014.41 1014.77 1015.10 1015.43 1015.80 1016.21 1016.65 1017.09 1017.49 1017.83 1018.10 1018.29 1018.42 1018.54 1018.66 1018.84 1019.08 1019.37 1019.72
1011.14 1011.08 1010.97 1010.88 1010.85 1010.91 1011.04 1011.22 1011.37 1011.45 1011.41 1011.23 1010.92 1010.54 1010.16 1009.85 1009.71 1009.77 1010.04 1010.51 1011.12 1011.81 1012.49 1013.12 1013.67 1014.13 1014.52 1014.88 1015.25 1015.65 1016.09 1016.56 1017.03 1017.47 1017.84 1018.11 1018.30 1018.42 1018.49 1018.58 1018.70 1018.89 1019.16 1019.49
1010.59 1010.50 1010.41 1010.38 1010.44 1010.61 1010.87 1011.17 1011.44 1011.60 1011.60 1011.42 1011.08 1010.62 1010.14 1009.73 1009.47 1009.43 1009.62 1010.03 1010.60 1011.28 1011.97 1012.62 1013.20 1013.69 1014.12 1014.51 1014.91 1015.34 1015.80 1016.30 1016.81 1017.28 1017.67 1017.97 1018.18 1018.30 1018.36 1018.43 1018.53 1018.69 1018.93 1019.24
1010.09 1009.99 1009.93 1009.96 1010.11 1010.40 1010.78 1011.20 1011.57 1011.80 1011.84 1011.67 1011.30 1010.78 1010.21 1009.70 1009.33 1009.17 1009.26 1009.58 1010.09 1010.72 1011.40 1012.05 1012.64 1013.16 1013.61 1014.03 1014.45 1014.89 1015.38 1015.90 1016.42 1016.92 1017.34 1017.67 1017.91 1018.05 1018.14 1018.21 1018.31 1018.46 1018.70 1019.00
1009.71 1009.63 1009.60 1009.69 1009.92 1010.30 1010.77 1011.28 1011.72 1012.02 1012.09 1011.93 1011.54 1010.97 1010.34 1009.73 1009.26 1008.99 1008.97 1009.20 1009.63 1010.19 1010.83 1011.46 1012.05 1012.58 1013.04 1013.47 1013.91 1014.36 1014.85 1015.38 1015.91 1016.42 1016.86 1017.23 1017.50 1017.69 1017.82 1017.93 1018.05 1018.22 1018.46 1018.76
1009.47 1009.41 1009.43 1009.57 1009.85 1010.28 1010.81 1011.36 1011.84 1012.16 1012.26 1012.10 1011.70 1011.12 1010.44 1009.78 1009.23 1008.87 1008.76 1008.89 1009.23 1009.72 1010.30 1010.90 1011.47 1011.98 1012.46 1012.89 1013.33 1013.78 1014.26 1014.78 1015.30 1015.81 1016.28 1016.67 1016.99 1017.24 1017.43 1017.59 1017.77 1017.97 1018.22 1018.53
1009.35 1009.33 1009.38 1009.55 1009.87 1010.31 1010.84 1011.38 1011.85 1012.17 1012.26 1012.10 1011.71 1011.13 1010.45 1009.76 1009.18 1008.77 1008.59 1008.63 1008.89 1009.30 1009.82 1010.37 1010.91 1011.41 1011.87 1012.30 1012.72 1013.16 1013.63 1014.12 1014.64 1015.14 1015.62 1016.04 1016.41 1016.72 1016.97 1017.21 1017.45 1017.70 1017.98 1018.29
1009.27 1009.30 1009.39 1009.58 1009.89 1010.30 1010.78 1011.26 1011.68 1011.95 1012.02 1011.86 1011.49 1010.94 1010.29 1009.64 1009.07 1008.65 1008.42 1008.41 1008.60 1008.94 1009.38 1009.87 1010.36 1010.84 1011.28 1011.70 1012.11 1012.53 1012.98 1013.45 1013.94 1014.44 1014.92 1015.37 1015.78 1016.15 1016.48 1016.79 1017.10 1017.41 1017.72 1018.05
1009.18 1009.26 1009.39 1009.58 1009.85 1010.20 1010.59 1010.97 1011.30 1011.50 1011.53 1011.38 1011.04 1010.56 1009.98 1009.40 1008.89 1008.49 1008.27 1008.22 1008.35 1008.61 1008.98 1009.40 1009.84 1010.27 1010.68 1011.07 1011.47 1011.88 1012.31 1012.76 1013.24 1013.73 1014.21 1014.68 1015.13 1015.55 1015.95 1016.33 1016.70 1017.06 1017.42 1017.76
1009.04 1009.18 1009.34 1009.53 1009.75 1010.00 1010.28 1010.54 1010.75 1010.86 1010.85 1010.71 1010.42 1010.03 1009.56 1009.09 1008.66 1008.34 1008.13 1008.07 1008.15 1008.34 1008.62 1008.96 1009.33 1009.70 1010.07 1010.44 1010.82 1011.21 1011.63 1012.07 1012.54 1013.02 1013.51 1013.99 1014.46 1014.92 1015.37 1015.81 1016.23 1016.64 1017.03 1017.40
1008.87 1009.08 1009.27 1009.44 1009.60 1009.76 1009.91 1010.03 1010.12 1010.14 1010.09 1009.95 1009.73 1009.45 1009.12 1008.78 1008.47 1008.23 1008.07 1008.00 1008.03 1008.15 1008.34 1008.58 1008.85 1009.15 1009.47 1009.80 1010.16 1010.54 1010.95 1011.39 1011.84 1012.32 1012.80 1013.28 1013.77 1014.26 1014.73 1015.21 1015.67 1016.12 1016.55 1016.94
1008.74 1009.01 1009.22 1009.38 1009.48 1009.54 1009.55 1009.54 1009.51 1009.45 1009.36 1009.25 1009.10 1008.93 1008.75 1008.56 1008.39 1008.24 1008.12 1008.06 1008.05 1008.08 1008.16 1008.29 1008.47 1008.68 1008.93 1009.22 1009.55 1009.91 1010.31 1010.73 1011.18 1011.64 1012.11 1012.58 1013.06 1013.55 1014.04 1014.53 1015.02 1015.49 1015.95 1016.37
1008.70 1009.02 1009.26 1009.40 1009.44 1009.40 1009.30 1009.16 1009.02 1008.89 1008.78 1008.69 1008.63 1008.58 1008.54 1008.51 1008.47 1008.41 1008.36 1008.29 1008.23 1008.18 1008.16 1008.17 1008.22 1008.34 1008.51 1008.74 1009.03 1009.36 1009.74 1010.15 1010.58 1011.01 1011.45 1011.90 1012.35 1012.82 1013.29 1013.78 1014.28 1014.77 1015.24 1015.68
1008.80 1009.16 1009.41 1009.52 1009.51 1009.38 1009.17 1008.93 1008.70 1008.51 1008.38 1008.34 1008.35 1008.43 1008.54 1008.65 1008.73 1008.78 1008.77 1008.70 1008.60 1008.47 1008.34 1008.23 1008.17 1008.18 1008.27 1008.43 1008.67 1008.97 1009.31 1009.69 1010.08 1010.47 1010.87 1011.27 1011.67 1012.09 1012.53 1013.00 1013.47 1013.96 1014.45 1014.91
1009.05 1009.42 1009.66 1009.73 1009.66 1009.45 1009.16 1008.83 1008.53 1008.30 1008.17 1008.17 1008.28 1008.46 1008.70 1008.94 1009.15 1009.28 1009.32 1009.27 1009.13 1008.93 1008.72 1008.51 1008.34 1008.26 1008.26 1008.35 1008.53 1008.78 1009.08 1009.41 1009.74 1010.08 1010.41 1010.74 1011.08 1011.43 1011.82 1012.23 1012.67 1013.15 1013.63 1014.11
1009.36 1009.72 1009.92 1009.95 1009.80 1009.53 1009.16 1008.77 1008.42 1008.17 1008.07 1008.11 1008.30 1008.59 1008.95 1009.32 1009.62 1009.84 1009.94 1009.91 1009.76 1009.53 1009.24 1008.97 1008.72 1008.56 1008.49 1008.52 1008.64 1008.83 1009.08 1009.34 1009.61 1009.88 1010.12 1010.37 1010.62 1010.89 1011.20 1011.55 1011.95 1012.39 1012.86 1013.34
1009.64 1009.94 1010.09 1010.05 1009.84 1009.50 1009.08 1008.65 1008.28 1008.04 1007.96 1008.07 1008.33 1008.72 1009.19 1009.66 1010.07 1010.36 1010.52 1010.53 1010.40 1010.16 1009.86 1009.54 1009.27 1009.06 1008.94 1008.92 1009.00 1009.14 1009.32 1009.52 1009.71 1009.89 1010.04 1010.19 1010.34 1010.52 1010.74 1011.02 1011.36 1011.76 1012.20 1012.67
1009.76 1009.99 1010.06 1009.95 1009.68 1009.28 1008.83 1008.38 1008.03 1007.81 1007.78 1007.95 1008.30 1008.78 1009.33 1009.89 1010.39 1010.76 1010.99 1011.05 1010.96 1010.75 1010.47 1010.17 1009.90 1009.69 1009.56 1009.52 1009.56 1009.66 1009.78 1009.92 1010.03 1010.12 1010.18 1010.23 1010.28 1010.37 1010.50 1010.70 1010.97 1011.32 1011.72 1012.16
1009.67 1009.80 1009.78 1009.60 1009.28 1008.85 1008.39 1007.96 1007.64 1007.48 1007.52 1007.76 1008.18 1008.74 1009.36 1010.00 1010.56 1011.01 1011.29 1011.42 1011.40 1011.25 1011.03 1010.78 1010.55 1010.38 1010.27 1010.24 1010.27 1010.34 1010.43 1010.50 1010.54 1010.55 1010.52 1010.48 1010.44 1010.43 1010.48 1010.60 1010.81 1011.09 1011.44 1011.83
1009.35 1009.40 1009.29 1009.04 1008.69 1008.26 1007.82 1007.45 1007.20 1007.12 1007.24 1007.55 1008.04 1008.66 1009.35 1010.03 1010.64 1011.13 1011.47 1011.66 1011.70 1011.63 1011.49 1011.32 1011.16 1011.05 1011.00 1011.01 1011.05 1011.11 1011.17 1011.20 1011.18 1011.12 1011.02 1010.90 1010.78 1010.69 1010.66 1010.71 1010.84 1011.06 1011.35 1011.69
1008.90 1008.85 1008.68 1008.40 1008.04 1007.64 1007.27 1006.98 1006.82 1006.85 1007.06 1007.46 1008.01 1008.67 1009.39 1010.08 1010.71 1011.22 1011.59 1011.82 1011.92 1011.92 1011.86 1011.78 1011.71 1011.68 1011.69 1011.74 1011.81 1011.89 1011.93 1011.93 1011.87 1011.76 1011.59 1011.41 1011.23 1011.08 1010.98 1010.97 1011.04 1011.19 1011.41 1011.69
1008.45 1008.34 1008.13 1007.84 1007.51 1007.18 1006.90 1006.72 1006.70 1006.84 1007.15 1007.62 1008.23 1008.91 1009.62 1010.30 1010.90 1011.39 1011.75 1011.98 1012.11 1012.16 1012.17 1012.16 1012.17 1012.22 1012.29 1012.39 1012.49 1012.58 1012.62 1012.60 1012.51 1012.36 1012.15 1011.92 1011.69 1011.49 1011.35 1011.28 1011.30 1011.40 1011.56 1011.77
1008.16 1008.03 1007.81 1007.55 1007.28 1007.05 1006.89 1006.85 1006.96 1007.23 1007.64 1008.18 1008.81 1009.49 1010.16 1010.78 1011.32 1011.74 1012.05 1012.25 1012.36 1012.42 1012.46 1012.50 1012.56 1012.65 1012.77 1012.90 1013.03 1013.11 1013.15 1013.12 1013.01 1012.83 1012.59 1012.33 1012.07 1011.84 1011.66 1011.56 1011.53 1011.58 1011.68 1011.83
Thickness
5792 5785 5785 5790 5792 5789 5785 5781 5780 5786 5790 5779 5774 5772 5772 5767 5758 5752 5746 5741 5736 5734 5734 5732 5732 5733 5733 5733 5733 5732 5731 5730 5729 5729 5729 5727 5725 5724 5723 5720 5717 5715 5713 5711
5781 5781 5795 5797 5794 5789 5786 5780 5784 5788 5785 5777 5773 5772 5775 5768 5759 5755 5749 5742 5738 5734 5732 5731 5731 5731 5732 5732 5732 5731 5730 5730 5730 5730 5730 5729 5727 5726 5724 5720 5716 5714 5713 5710
5777 5792 5798 5791 5789 5785 5786 5782 5780 5778 5781 5780 5771 5772 5769 5767 5763 5758 5754 5749 5745 5739 5735 5732 5732 5733 5733 5732 5732 5734 5732 5731 5731 5730 5730 5727 5724 5723 5722 5719 5717 5714 5712 5710
5783 5795 5791 5787 5788 5786 5780 5789 5782 5777 5771 5774 5767 5757 5769 5767 5761 5758 5756 5753 5749 5746 5743 5739 5737 5737 5737 5737 5737 5736 5734 5732 5731 5731 5730 5727 5725 5723 5723 5721 5719 5715 5712 5710
5782 5790 5786 5783 5789 5788 5785 5787 5782 5778 5772 5769 5771 5761 5770 5771 5762 5762 5761 5759 5757 5754 5750 5746 5745 5744 5744 5743 5741 5738 5735 5733 5732 5731 5730 5727 5726 5725 5725 5722 5717 5715 5713 5710
5789 5799 5794 5792 5796 5793 5788 5782 5780 5777 5775 5758 5764 5757 5763 5772 5769 5770 5767 5764 5762 5760 5756 5753 5752 5750 5747 5747 5744 5741 5736 5733 5732 5731 5730 5727 5726 5724 5722 5719 5717 5715 5715 5712
5778 5789 5797 5798 5786 5786 5783 5772 5763 5758 5758 5759 5768 5760 5765 5778 5781 5778 5773 5769 5767 5765 5760 5756 5753 5751 5749 5748 5746 5743 5738 5734 5733 5731 5729 5728 5726 5723 5720 5720 5718 5717 5717 5714
5768 5772 5791 5793 5788 5783 5780 5774 5753 5740 5747 5761 5768 5759 5774 5784 5785 5783 5781 5777 5772 5768 5764 5760 5757 5755 5752 5750 5747 5744 5740 5737 5735 5732 5730 5728 5726 5725 5725 5721 5721 5718 5717 5716
5773 5774 5792 5794 5794 5787 5776 5774 5783 5765 5761 5752 5764 5770 5780 5784 5781 5780 5778 5776 5773 5771 5769 5765 5762 5760 5756 5753 5750 5748 5743 5740 5737 5734 5731 5729 5727 5726 5725 5722 5719 5719 5716 5714
5785 5769 5784 5788 5787 5782 5783 5781 5768 5760 5741 5740 5755 5762 5768 5773 5774 5777 5775 5775 5774 5774 5772 5769 5767 5764 5761 5758 5755 5751 5747 5742 5739 5736 5733 5731 5729 5726 5724 5722 5719 5717 5714 5712
5787 5769 5772 5775 5770 5773 5766 5766 5764 5764 5758 5741 5741 5758 5782 5778 5778 5778 5778 5778 5777 5776 5774 5772 5769 5767 5764 5761 5757 5751 5748 5744 5740 5738 5735 5733 5730 5727 5724 5721 5719 5715 5713 5709
5782 5773 5766 5771 5781 5783 5776 5772 5764 5748 5747 5750 5747 5760 5787 5785 5786 5782 5781 5780 5780 5778 5777 5775 5771 5767 5764 5761 5757 5753 5750 5746 5743 5741 5736 5733 5730 5726 5723 5721 5718 5715 5711 5708
5774 5762 5748 5751 5757 5764 5764 5769 5769 5766 5758 5750 5745 5759 5782 5784 5783 5781 5779 5779 5778 5777 5776 5774 5770 5766 5762 5760 5757 5755 5751 5748 5746 5742 5737 5733 5729 5726 5723 5721 5717 5714 5710 5706
5774 5762 5755 5747 5753 5764 5758 5761 5764 5760 5750 5751 5754 5761 5773 5775 5773 5774 5775 5775 5776 5774 5773 5771 5768 5765 5762 5760 5757 5754 5751 5750 5746 5742 5737 5733 5730 5727 5724 5720 5716 5712 5708 5704
5765 5756 5759 5763 5766 5765 5763 5763 5761 5756 5757 5753 5759 5763 5768 5769 5767 5767 5769 5771 5771 5770 5770 5769 5767 5764 5761 5758 5755 5753 5750 5748 5745 5740 5735 5732 5729 5726 5722 5718 5714 5710 5706 5703
5756 5750 5752 5750 5759 5759 5756 5761 5761 5758 5758 5758 5759 5759 5769 5766 5764 5761 5761 5762 5763 5765 5767 5767 5765 5763 5759 5756 5754 5751 5748 5745 5741 5736 5733 5730 5727 5722 5719 5715 5711 5707 5704 5700
5749 5742 5736 5740 5752 5747 5743 5758 5758 5757 5761 5758 5752 5758 5760 5754 5750 5749 5750 5753 5755 5758 5760 5761 5761 5760 5757 5756 5753 5749 5746 5743 5737 5733 5730 5727 5723 5719 5716 5713 5708 5703 5700 5696
5741 5736 5735 5736 5732 5717 5751 5765 5762 5756 5757 5759 5755 5753 5751 5747 5745 5745 5745 5745 5747 5750 5753 5754 5756 5756 5755 5753 5751 5747 5744 5739 5734 5729 5726 5724 5720 5716 5713 5708 5704 5699 5696 5692
5740 5732 5729 5729 5725 5731 5745 5752 5752 5745 5744 5751 5747 5744 5744 5745 5743 5739 5737 5739 5740 5742 5745 5747 5750 5751 5749 5747 5745 5742 5737 5733 5729 5725 5721 5719 5716 5712 5707 5703 5698 5695 5691 5688
5729 5730 5728 5722 5713 5713 5736 5748 5751 5743 5731 5741 5740 5736 5737 5737 5732 5725 5727 5729 5731 5733 5736 5738 5740 5740 5738 5737 5736 5732 5728 5723 5720 5718 5715 5713 5709 5705 5701 5697 5693 5690 5685 5682
5715 5715 5717 5715 5711 5725 5738 5743 5740 5721 5722 5733 5734 5731 5730 5725 5721 5716 5718 5717 5719 5720 5722 5724 5724 5723 5722 5722 5722 5718 5715 5711 5710 5709 5706 5703 5699 5696 5693 5690 5686 5683 5679 5676
5714 5713 5709 5711 5703 5711 5731 5732 5726 5722 5726 5727 5725 5724 5719 5714 5710 5707 5705 5703 5705 5706 5707 5707 5707 5706 5707 5706 5706 5704 5700 5699 5698 5697 5694 5691 5689 5686 5684 5680 5676 5674 5671 5667
5711 5713 5718 5716 5713 5717 5726 5724 5723 5724 5720 5718 5717 5714 5710 5704 5699 5696 5693 5692 5692 5692 5693 5693 5693 5691 5690 5689 5689 5687 5685 5685 5685 5684 5682 5680 5678 5675 5673 5670 5667 5664 5661 5660
5704 5707 5708 5708 5714 5714 5715 5716 5716 5717 5713 5712 5709 5704 5700 5693 5689 5684 5682 5680 5679 5679 5679 5679 5678 5676 5673 5674 5674 5672 5672 5672 5672 5670 5668 5667 5666 5663 5660 5658 5658 5655 5653 5650
5698 5699 5700 5699 5703 5705 5704 5705 5706 5705 5703 5699 5695 5692 5687 5682 5677 5673 5669 5668 5667 5666 5666 5666 5665 5663 5661 5661 5661 5660 5660 5659 5658 5657 5656 5655 5655 5653 5649 5647 5645 5643 5640 5637
5690 5689 5688 5690 5692 5694 5691 5695 5697 5693 5689 5685 5680 5676 5673 5670 5665 5662 5658 5656 5655 5654 5653 5653 5653 5651 5650 5649 5648 5647 5647 5646 5645 5644 5644 5644 5643 5640 5639 5636 5634 5629 5625 5620